Content
SEND FEEDBACK

Daily
Averages
Monthly
Summary
United States of America

ANN ARBOR, MICHIGAN


Home > North America > United States > Michigan
Elevation: 231 meters     Latitude: 42 17N     Longitude: 083 43W

WEATHER
 
SELECT A DAY
Number of Records: 203,747;   Date Range: 1/1/95 - 8/17/14
 
SHARE

PRINT THIS DATA

[ ← Previous Day ]
WEATHER ALMANAC - 9 JANUARY, 2013
[ Next Day → ]
[ °F ]   °C
Weather ElementAverageHighLow
Temperature-0.2 °C7.2 °C (3:53 pm)-9 °C (2:12 am)
Dewpoint-4.7 °C-0.6 °C (7:53 am)-10 °C (2:12 am)
Humidity74 %100 % (1:31 am)44 % (3:53 pm)
Barometer1022.4 hPa1031.8 hPa (11:53 pm)1018.3 hPa (6:53 am)
Wind Speed14.5 km/h35.2 km/h (2:53 pm)
Wind Gust51.8 km/h (3:53 pm)
Weather ElementAverage
Visibility10.5 km
Wind DirectionSSW (196.1 °)

Weather ElementTotal
Precipitation---
Heating Degree Days19.2 (Base 18.3)
Averaged from 31 records on 9 January, 2013
WEATHER CONDITIONS BREAKOUT
WIND DIRECTION BREAKOUT
WEATHER BY HOUR - 9 JANUARY, 2013
[ °F ]   °C
Local TimeTemperatureDewpointHumidityBarometerVisibilityWind DirectionWind SpeedGust SpeedPrecipitationEventsConditions
12:53 AM-5.6 °C-8.9 °C78 %1022 hPa4 kmCalmHaze
1:02 AM-7 °C-8 °C93 %1020.7 hPa1.9 kmCalmClear
1:22 AM-6 °C-7 °C93 %1020 hPa2.4 kmCalmClear
1:31 AM-6 °C-6 °C100 %1020 hPa4 kmCalmClear
1:39 AM-4 °C-6 °C86 %1019.6 hPa4.8 kmCalmClear
1:50 AM-7 °C-9 °C86 %1019.6 hPa3.2 kmCalmClear
1:53 AM-6.7 °C-8.3 °C89 %1020.7 hPa3.2 kmCalmClear
2:12 AM-9 °C-10 °C93 %1019.3 hPa2.9 kmSSW (210°)5.6 km/hClear
2:19 AM-6 °C-7 °C93 %1019.3 hPa4 kmSW (220°)7.4 km/hClear
2:53 AM-5.6 °C-7.2 °C89 %1020.7 hPa4 kmSW (220°)7.4 km/hPartly Cloudy
3:13 AM-6 °C-7 °C93 %1019.6 hPa4.8 kmSSW (210°)9.3 km/hPartly Cloudy
3:53 AM-2.8 °C-4.4 °C89 %1020 hPa6.4 kmSSW (210°)9.3 km/hOvercast
4:53 AM-1.1 °C-3.3 °C85 %1018.6 hPa8 kmSSW (200°)9.3 km/hOvercast
5:53 AM0.6 °C-2.2 °C82 %1019 hPa9.7 kmWSW (240°)13 km/hHaze
6:53 AM1.7 °C-1.1 °C82 %1018.3 hPa11.3 kmSSW (210°)13 km/h0 mmMostly Cloudy
7:53 AM2.8 °C-0.6 °C79 %1018.6 hPa14.5 kmSW (220°)20.4 km/hClear
8:53 AM2.2 °C-1.1 °C79 %1019.6 hPa11.3 kmWSW (240°)18.5 km/hClear
9:53 AM4.4 °C-0.6 °C70 %1020.3 hPa16.1 kmWSW (250°)27.8 km/h40.7 km/hClear
10:53 AM5 °C-0.6 °C67 %1021 hPa16.1 kmWest (270°)24.1 km/h38.9 km/hClear
11:53 AM5.6 °C-1.7 °C60 %1021 hPa16.1 kmWest (270°)31.5 km/h42.6 km/hClear
1:53 PM6.1 °C-2.2 °C56 %1021.3 hPa16.1 kmWest (260°)33.3 km/h50.1 km/hClear
2:53 PM6.7 °C-3.3 °C49 %1022 hPa16.1 kmWest (270°)35.2 km/h46.3 km/hClear
3:53 PM7.2 °C-4.4 °C44 %1022.7 hPa16.1 kmWest (280°)33.3 km/h51.8 km/hClear
4:53 PM6.1 °C-4.4 °C47 %1023.7 hPa16.1 kmWest (270°)25.9 km/h42.6 km/hClear
5:53 PM5.6 °C-5 °C47 %1025.1 hPa16.1 kmWest (270°)24.1 km/hClear
6:53 PM4.4 °C-5 °C51 %1026.8 hPa16.1 kmWNW (290°)18.5 km/hClear
7:53 PM4.4 °C-5 °C51 %1028.1 hPa16.1 kmNW (310°)27.8 km/h37 km/hClear
8:53 PM3.3 °C-4.4 °C57 %1028.8 hPa16.1 kmNW (310°)22.2 km/h29.6 km/hClear
9:53 PM2.8 °C-3.9 °C62 %1029.5 hPa16.1 kmNW (320°)14.8 km/hClear
10:53 PM1.7 °C-3.9 °C67 %1030.1 hPa16.1 kmNW (310°)7.4 km/hClear
11:53 PM-2.2 °C-5.6 °C78 %1031.8 hPa16.1 kmSW (220°)9.3 km/hClear
Hourly data recorded from KARB, located 0 kilometers away from Ann Arbor, Michigan







STORIES FROM OUR PARTNERS